Home > Weather > Aylesbury > Past weeks

Flag for United Kingdom Past Weather in Aylesbury, England, United Kingdom — Yesterday and Last 2 Weeks

Now
51 °F

Cool.


Feels Like: 51 °F
Forecast: 52 / 66 °F
Wind: 2 mph from Northwest

Location: High Wicombe Hqstc

Current Time: Jun 26, 2016 at 12:14:40 AM

Latest Report: Jun 25, 2016 at 11:00 PM


Visibility: 25 mi

Pressure: 30.06 "Hg

Humidity: 91%

Dew Point: 49 °F

Location of AylesburyLocation

Past Weather in Aylesbury — Graph

°F

Aylesbury Temperature Yesterday

Maximum temperature yesterday: 65 °F (at 5:00 PM)
Minimum temperature yesterday: 50 °F (at 4:00 AM)
Average temperature yesterday: 57 °F

High & Low Weather Summary for the Past Weeks

 TemperatureHumidityPressure
High69 °F (Jun 20, 5:00 PM)100% (Jun 11, 8:00 AM)30.24 "Hg (Jun 11, 8:00 AM)
Low50 °F (Jun 18, 4:00 AM)64% (Jun 17, 6:00 PM)29.35 "Hg (Jun 14, 3:00 PM)
Average58 °F88%29.85 "Hg
* Reported Jun 10 10:00 PM — Jun 25 10:00 PM, Aylesbury, Weather by CustomWeather, © 2016

Note: Actual official high and low records may vary slightly from our data, if they occured in-between our weather recording intervals... More about our weather records

Advertising

Aylesbury Weather History for the Previous 24 Hours

Scroll right to see more
 ConditionsComfort  
Time TempWeatherWind HumidityBarometerVisibility
10:00 PM
Sat, Jun 25
56 °FRain showers. Overcast.2 mph86%30.05 "Hg19 mi
9:00 PM56 °FCool.5 mph85%30.03 "Hg28 mi
8:00 PM57 °FCool.5 mph83%30.02 "Hg28 mi
7:00 PM58 °FCool.6 mph79%30.02 "Hg22 mi
6:00 PM59 °FCool.7 mph75%30.01 "Hg31 mi
5:00 PM65 °FMild.6 mph65%30.01 "Hg28 mi
4:00 PM64 °FMild.6 mph66%30.01 "Hg28 mi
3:00 PM59 °FLots of rain. Cloudy.5 mph79%30.02 "Hg18 mi
2:00 PM63 °FMild.3 mph80%30.01 "Hg31 mi
1:00 PM59 °FCool.3 mph87%30.02 "Hg15 mi
12:00 PM60 °FCool.6 mph70%30.02 "Hg12 mi
11:00 AM62 °FCool.3 mph71%30.02 "Hg18 mi
10:00 AM59 °FCool.5 mph79%30.03 "Hg22 mi
9:00 AM57 °FCool.2 mph86%30.04 "Hg12 mi
8:00 AM54 °FCool.2 mph91%30.04 "Hg14 mi
7:00 AM53 °FCool.3 mph96%30.03 "Hg6 mi
6:00 AM51 °FCool.5 mph99%30.02 "Hg6 mi
5:00 AM51 °FCool.6 mph98%30.03 "Hg8 mi
4:00 AM50 °FCool.2 mph97%30.04 "Hg8 mi
3:00 AM51 °FCool.3 mph96%30.04 "Hg9 mi
2:00 AM51 °FCool.3 mph92%30.05 "Hg12 mi
1:00 AM53 °FCool.1 mph87%30.06 "Hg19 mi
12:00 AM54 °FCool.2 mph84%30.06 "Hg22 mi
Weather by CustomWeather, © 2016

See weather overviewHow to use our weather pages